Location: Noyers
(47.2770°N, 1.4032°E)
Time: 23:32:23
(UTC+00:00)

CZ-4B R/B - Pass Details

Date: 15 May 2026
Orbit: 807 x 881 km, 98.9° (Epoch: 11 June)

Event Time Altitude Azimuth Distance (km) Brightness Sun altitude
Exits shadow 20:05:21 - 161° (SSE) 3,257 5.7 -6.7°
Reaches altitude 10° 20:07:12 10° 161° (SSE) 2,529 5.2 -6.9°
Maximum altitude 20:12:51 84° 75° (ENE) 884 3.3 -7.7°
Drops below altitude 10° 20:18:28 10° 346° (NNW) 2,517 6.6 -8.4°
Sets 20:20:50 0° 346° (NNW) 3,448 7.4 -8.7°
